Weather History for Glasgow, MT

Change the Weather History Date:

Thursday, May 2, 2013

  Actual Average Record
Temperature  
Mean Temperature 44 °F 51 °F  
Max Temperature 62 °F 64 °F 90 °F (1901)
Min Temperature 26 °F 37 °F 18 °F (1954)
Degree Days  
Heating Degree Days 21 15  
Month to date heating degree days 51 30  
Since 1 July heating degree days 8310 8037  
Cooling Degree Days 0 0  
Month to date cooling degree days 0 0  
Year to date cooling degree days 0 1  
Moisture  
Dew Point 21 °F    
Average Humidity 46    
Maximum Humidity 72    
Minimum Humidity 20    
Precipitation  
Precipitation 0.00 in 0.05 in 0.79 in (1952)
Month to date precipitation 0.00 0.09  
Year to date precipitation 2.81 1.99  
Snow  
Snow 0.00 in 0.00 in 0.50 in (1954)
Month to date snowfall 0.0 0.1  
Since 1 July snowfall 62.3 33.7  
Snow Depth 0.00 in    
Sea Level Pressure  
Sea Level Pressure 30.48 in    
Wind  
Wind Speed 9 mph (SE)    
Max Wind Speed 15 mph    
Max Gust Speed 26 mph    
Visibility 10 miles    
Events      
T = Trace of Precipitation, MM = Missing Value Source: NWS Daily Summary

Daily Weather History Graph

Daily Weather History Graph

Search for Another Location

Airport:

Trip Planner

Search our weather history database for the weather conditions in past years. The results will help you decide how hot, cold, wet, or windy it might be!

Date:

Astronomy

May. 02, 2013 Rise Set
Actual Time 5:45 AM MDT 8:22 PM MDT
Civil Twilight 5:10 AM MDT 8:57 PM MDT
Nautical Twilight 4:26 AM MDT 9:42 PM MDT
Astronomical Twilight 3:34 AM MDT 10:34 PM MDT
Moon 2:08 AM MDT (5/2) 12:42 PM MDT (5/2)
Length of Visible Light 15h 46m
Length of Day
14h 36m
Waning Gibbous, 47% of the Moon is Illuminated
May 2
Waning Gibbous
May 9
New
May 17
First Quarter
May 24
Full
May 31
Last Quarter

Hourly Weather History & Observations

Time (MDT) Temp. Windchill Dew Point Humidity Pressure Visibility Wind Dir Wind Speed Gust Speed Precip Events Conditions
12:53 AM 37.0 °F 31.0 °F 19.0 °F 48% 30.57 in 10.0 mi NNE 8.1 mph - N/A   Overcast
1:53 AM 32.0 °F 24.2 °F 24.1 °F 73% 30.62 in 10.0 mi East 9.2 mph - N/A   Clear
2:53 AM 30.0 °F 24.1 °F 21.9 °F 72% 30.63 in 10.0 mi ESE 5.8 mph - N/A   Clear
3:53 AM 32.0 °F 23.0 °F 21.0 °F 64% 30.62 in 10.0 mi East 11.5 mph - N/A   Clear
4:53 AM 27.0 °F 18.0 °F 18.0 °F 69% 30.63 in 10.0 mi East 9.2 mph - N/A   Clear
5:53 AM 26.1 °F 17.6 °F 18.0 °F 71% 30.63 in 10.0 mi East 8.1 mph - N/A   Clear
6:53 AM 30.2 °F 22.6 °F 19.4 °F 64% 30.55 in 10.0 mi ESE 8.1 mph - N/A   Clear
7:53 AM 37.0 °F 31.0 °F 21.0 °F 52% 30.62 in 10.0 mi ESE 8.1 mph - N/A   Clear
8:53 AM 43.0 °F 39.5 °F 26.1 °F 51% 30.61 in 10.0 mi SSE 5.8 mph - N/A   Clear
9:53 AM 46.9 °F - 26.1 °F 44% 30.58 in 10.0 mi Variable 5.8 mph - N/A   Clear
10:53 AM 52.0 °F - 19.9 °F 28% 30.55 in 10.0 mi WSW 8.1 mph - N/A   Clear
11:53 AM 55.0 °F - 19.9 °F 25% 30.52 in 10.0 mi Variable 4.6 mph - N/A   Clear
12:53 PM 57.0 °F - 21.0 °F 25% 30.49 in 10.0 mi West 10.4 mph 17.3 mph N/A   Clear
1:53 PM 60.1 °F - 19.9 °F 21% 30.47 in 10.0 mi SW 11.5 mph 16.1 mph N/A   Clear
2:53 PM 59.0 °F - 19.0 °F 21% 30.44 in 10.0 mi WSW 4.6 mph - N/A   Clear
3:53 PM 61.0 °F - 19.9 °F 21% 30.40 in 10.0 mi SW 9.2 mph 26.5 mph N/A   Clear
4:53 PM 61.0 °F - 19.9 °F 21% 30.38 in 10.0 mi SW 4.6 mph - N/A   Clear
5:53 PM 61.0 °F - 19.9 °F 21% 30.37 in 10.0 mi South 9.2 mph - N/A   Clear
6:53 PM 60.1 °F - 21.0 °F 22% 30.34 in 10.0 mi SSE 10.4 mph - N/A   Clear
7:53 PM 54.0 °F - 24.1 °F 31% 30.33 in 10.0 mi SE 9.2 mph - N/A   Clear
8:53 PM 46.9 °F - 21.9 °F 37% 30.33 in 10.0 mi East 10.4 mph - N/A   Clear
9:53 PM 46.9 °F - 21.0 °F 36% 30.32 in 10.0 mi East 12.7 mph - N/A   Clear
10:53 PM 44.1 °F 38.1 °F 21.0 °F 40% 30.30 in 10.0 mi East 11.5 mph - N/A   Clear
11:53 PM 42.1 °F 35.2 °F 21.0 °F 43% 30.29 in 10.0 mi ESE 12.7 mph - N/A   Clear